Lexington Weather

Lexington, Massachusetts, USA

54°F
5/18/2024 12:26am 
  • Lexington Conditions: Clear
  • Temperature: 54.1°F / 12.3°CColder 1.1°F than last hour.
  • Dew Point: 50.0°FDecreased 0.2°Fsince last hour.
  • Relative Humidity: 86%Increased 3.0% since last hour.
  • Wind: Calm, 10-min avg: Calm, gust: None
  • Barometer: 29.96 in Steady
  • Visibility: 10 miles
  • Rain Today: 0.00 in
  •   

Regional Weather Roundup
for Boston, MA

        
000
ASUS41 KBOX 111810
RWRBOX

REGIONAL WEATHER ROUNDUP
NATIONAL WEATHER SERVICE BOSTON/NORTON MA
200 PM EDT SAT MAY 11 2024

NOTE:  "FAIR" INDICATES FEW OR NO CLOUDS BELOW 12,000 FEET WITH NO 
SIGNIFICANT WEATHER AND/OR OBSTRUCTIONS TO VISIBILITY.

MAZALL-111900-
EASTERN MASSACHUSETTS
  
CITY           SKY/WX    TMP DP  RH WIND       PRES   REMARKS
BOSTON         PTSUNNY   51  43  74 E12       29.88S                  
6HR MIN TEMP:  49; 6HR MAX TEMP:  54;                                

BEVERLY        CLOUDY    50  43  77 SE13      29.87S                  
LAWRENCE       PTSUNNY   54  40  59 NE12      29.88F                  
BEDFORD        CLOUDY    56  42  59 E10       29.85S                  
NORWOOD        CLOUDY    56  40  55 NE15      29.87S                  
MARSHFIELD     PTSUNNY   52  41  66 NE12G18   29.88S                  
PLYMOUTH       MOSUNNY   54  40  59 NE12G22   29.86S                  
TAUNTON        LGT RAIN  54  38  54 E7G20     29.85F                  
NEW BEDFORD    CLOUDY    54  39  57 NE14G22   29.84S                  
$$

MAZALL-111900-
CAPE COD AND THE ISLANDS
  
CITY           SKY/WX    TMP DP  RH WIND       PRES   REMARKS
FALMOUTH       NOT AVBL                                               
HYANNIS        CLOUDY    51  40  65 N16G24    29.83R                  
CHATHAM        CLOUDY    50  40  68 NE17G23   29.85R                  
PROVINCETOWN   CLOUDY    53  44  71 NE15      29.88R                  
NANTUCKET      CLOUDY    48  41  76 NE21G30   29.83R                  
MARTHAS VNYRD  CLOUDY    52  41  66 NE16G24   29.84R                  
$$
 
MAZALL-111900-
CENTRAL AND WESTERN MASSACHUSETTS
  
CITY           SKY/WX    TMP DP  RH WIND       PRES   REMARKS
WORCESTER      CLOUDY    54  36  50 E12G20    29.83F                  
6HR MIN TEMP:  47; 6HR MAX TEMP:  57;                                

FITCHBURG      CLOUDY    57  36  45 SE10G17   29.84S                  
ORANGE         CLOUDY    59  33  37 SE10      29.82F                  
SPRINGFIELD    PTSUNNY   61  34  37 E7        29.78F                  
WESTFIELD      PTSUNNY   63  36  36 NE9       29.80F                  
NORTH ADAMS    CLOUDY    60  37  42 E6        29.79F                  
PITTSFIELD     PTSUNNY   59  35  40 VRB3      29.78F                  
$$
 
RIZALL-111900-
RHODE ISLAND
  
CITY           SKY/WX    TMP DP  RH WIND       PRES   REMARKS
PROVIDENCE     PTSUNNY   57  41  55 NE14      29.85S                  
6HR MIN TEMP:  49; 6HR MAX TEMP:  59;                                

NEWPORT        CLOUDY    53  39  59 NE10G20   29.84S                  
BLOCK ISLAND   PTSUNNY   52  42  69 NE14G20   29.85S                  
SMITHFIELD     CLOUDY    56  39  53 E12       29.84F                  
WESTERLY       CLOUDY    56  43  61 SE12G24   29.83S                  
$$
 
CTZALL-111900-
CONNECTICUT
  
CITY           SKY/WX    TMP DP  RH WIND       PRES   REMARKS
BRADLEY INTL   PTSUNNY   64  37  36 VRB3      29.81F                  
6HR MIN TEMP:  53; 6HR MAX TEMP:  66;                                

HARTFORD       CLOUDY    61  37  41 VRB3      29.81S                  
PLAINVILLE     CLOUDY    61  35  37 VRB6      29.80F                  
BRIDGEPORT     CLOUDY    56  41  57 S9        29.84R                  
DANBURY        CLOUDY    60  36  40 SE5       29.82F                  
GROTON         CLOUDY    55  45  68 SE15      29.82F                  
NEW HAVEN      CLOUDY    58  44  60 SE9       29.84S                  
CHESTER        PTSUNNY   55  41  58 SE8       29.84R                  
MERIDEN        CLOUDY    59  40  49 S12       29.82S                  
WILLIMANTIC    CLOUDY    58  35  42 VRB6      29.82F                  
OXFORD         CLOUDY    58  36  43 E7        29.82F                  
$$

MEZ002-015-021-024-NHZ003-005-008-011-012-014-VTZ005-008-111900-
NORTHERN NEW ENGLAND
  
CITY           SKY/WX    TMP DP  RH WIND       PRES   REMARKS
PORTLAND ME    PTSUNNY   53  41  63 E9        29.90S                  
6HR MIN TEMP:  48; 6HR MAX TEMP:  54; 6HR PCP: TRACE;                

BANGOR ME      CLOUDY    57  36  45 E3        29.87F                  
CONCORD NH     CLOUDY    57  37  47 E12G22    29.85R                  
MANCHESTER NH  PTSUNNY   58  38  47 E8G21     29.84S                  
NASHUA NH      PTSUNNY   57  39  51 E14       29.86S                  
PORTSMOUTH NH  PTSUNNY   53  42  67 E10       29.88S                  
JAFFREY NH     CLOUDY    56  34  43 SE5       29.83F                  
KEENE NH       CLOUDY    59  35  40 VRB5      29.81F                  
BURLINGTON VT  LGT RAIN  59  44  57 VRB3      29.77F                  
MT. WASHINGTON FOG       28  28 100 SE9         N/A  VSB 1/16WCI  20  
$$

NYZ052-076-111900-
EASTERN NEW YORK
  
CITY           SKY/WX    TMP DP  RH WIND       PRES   REMARKS
ALBANY         PTSUNNY   66  41  40 SW3       29.79F                  
6HR MIN TEMP:  51; 6HR MAX TEMP:  67;                                

NEW YORK CITY  PTSUNNY   58  41  53 S14G22    29.84S                  
6HR MIN TEMP:  52; 6HR MAX TEMP:  61;                                

$$
 
ANZALL-111900-
MARINE OBSERVATIONS
  
STATION/POSITION TIME  TEMP    WIND        PRES    VSBY  WAVE
                       AIR SEA DIR/SP/G                  HT/PER
                 (UTC) (F)     (DEG/KT/KT) (MB)    (MI)  (FT/S)
BOSTON BUOY      1750   48 50   60/  8/ 10 1012.0S         3/ 4
BUZZARDS BAY     1700   49      50/ 17/ 19 1010.9S
NANTUCKET SOUND  1750   49 54   60/ 17/ 23 1010.0R         3/ 4
MASS BAY-STELLWA NOT AVBL
ISLE OF SHOALS   1700   47      80/ 12/ 13 1011.5S
S OF BLOCK IS    1726      49                N/A           4/ 5
$$

......................KEY.........................
  SKY/WX - SKY CONDITION/PRESENT WEATHER
  TMP    - TEMPERATURE IN FAHRENHEIT
  DWPT   - DEWPOINT IN FAHRENHEIT
  RH     - RELATIVE HUMIDITY IN PERCENT
  WIND   - DIRECTION AND SPEED IN MPH
  PRES   - MEAN SEA LEVEL PRESSURE IN INCHES OF HG
  WCI    - WIND CHILL INDEX
  VSB    - VISIBILITY IN MILES
  HX     - HEAT INDEX
  TC     - TEMPERATURE IN CELSIUS
  VRB    - VARIABLE WIND DIRECTION
  N/A    - NOT AVAILABLE
  
      

Other recent Regional Weather Roundups

Sat May 18, 12:10am EDT

Fri May 17, 11:10pm EDT

Fri May 17, 10:10pm EDT

Fri May 17, 9:10pm EDT

Fri May 17, 8:10pm EDT

Fri May 17, 7:10pm EDT

Fri May 17, 6:10pm EDT

Fri May 17, 5:10pm EDT

Fri May 17, 4:10pm EDT

Fri May 17, 3:10pm EDT

Fri May 17, 2:10pm EDT

Fri May 17, 1:10pm EDT

Fri May 17, 12:10pm EDT

Fri May 17, 11:10am EDT

Fri May 17, 10:10am EDT

Fri May 17, 9:10am EDT

Fri May 17, 8:10am EDT

Fri May 17, 7:10am EDT

Fri May 17, 6:10am EDT

Fri May 17, 5:10am EDT

Fri May 17, 4:10am EDT

Fri May 17, 3:10am EDT

Fri May 17, 2:10am EDT

Fri May 17, 1:10am EDT

Fri May 17, 12:10am EDT

Thu May 16, 11:10pm EDT

Thu May 16, 10:10pm EDT

Thu May 16, 9:10pm EDT

Thu May 16, 8:10pm EDT

Thu May 16, 7:10pm EDT

Thu May 16, 6:10pm EDT

Thu May 16, 5:10pm EDT

Thu May 16, 4:10pm EDT

Thu May 16, 3:10pm EDT

Thu May 16, 2:10pm EDT

Thu May 16, 1:10pm EDT

Thu May 16, 12:10pm EDT

Thu May 16, 11:10am EDT

Thu May 16, 10:10am EDT

Thu May 16, 9:10am EDT

Thu May 16, 8:10am EDT

Thu May 16, 7:10am EDT

Thu May 16, 6:10am EDT

Thu May 16, 5:10am EDT

Thu May 16, 4:10am EDT

Thu May 16, 3:10am EDT

Thu May 16, 2:10am EDT

Thu May 16, 1:10am EDT

Thu May 16, 12:10am EDT

Wed May 15, 11:10pm EDT

Wed May 15, 10:10pm EDT

Wed May 15, 9:10pm EDT

Wed May 15, 8:10pm EDT

Wed May 15, 7:10pm EDT

Wed May 15, 6:10pm EDT

Wed May 15, 5:10pm EDT

Wed May 15, 4:10pm EDT

Wed May 15, 3:10pm EDT

Wed May 15, 2:10pm EDT

Wed May 15, 1:10pm EDT

Wed May 15, 12:10pm EDT

Wed May 15, 11:10am EDT

Wed May 15, 10:10am EDT

Wed May 15, 9:10am EDT

Wed May 15, 8:10am EDT

Wed May 15, 7:10am EDT

Wed May 15, 6:10am EDT

Wed May 15, 5:10am EDT

Wed May 15, 4:10am EDT

Wed May 15, 3:10am EDT

Wed May 15, 2:10am EDT

Wed May 15, 1:10am EDT

Wed May 15, 12:10am EDT

Tue May 14, 11:10pm EDT

Tue May 14, 10:10pm EDT

Tue May 14, 9:10pm EDT

Tue May 14, 8:10pm EDT

Tue May 14, 7:10pm EDT

Tue May 14, 6:10pm EDT

Tue May 14, 5:10pm EDT

Tue May 14, 4:10pm EDT

Tue May 14, 3:10pm EDT

Tue May 14, 2:10pm EDT

Tue May 14, 1:10pm EDT

Tue May 14, 12:10pm EDT

Tue May 14, 11:10am EDT

Tue May 14, 10:10am EDT

Tue May 14, 9:10am EDT

Tue May 14, 8:10am EDT

Tue May 14, 7:10am EDT

Tue May 14, 6:10am EDT

Tue May 14, 5:10am EDT

Tue May 14, 4:10am EDT

Tue May 14, 3:10am EDT

Tue May 14, 2:10am EDT

Tue May 14, 1:10am EDT

Tue May 14, 12:10am EDT

Mon May 13, 11:10pm EDT

Mon May 13, 10:10pm EDT

Mon May 13, 9:10pm EDT

Mon May 13, 8:10pm EDT

Mon May 13, 7:10pm EDT

Mon May 13, 6:10pm EDT

Mon May 13, 5:10pm EDT

Mon May 13, 4:10pm EDT

Mon May 13, 3:10pm EDT

Mon May 13, 2:10pm EDT

Mon May 13, 1:10pm EDT

Mon May 13, 12:10pm EDT

Mon May 13, 11:10am EDT

Mon May 13, 10:10am EDT

Mon May 13, 9:10am EDT

Mon May 13, 8:10am EDT

Mon May 13, 7:10am EDT

Mon May 13, 6:10am EDT

Mon May 13, 5:10am EDT

Mon May 13, 4:10am EDT

Mon May 13, 3:10am EDT

Mon May 13, 2:10am EDT

Mon May 13, 1:10am EDT

Mon May 13, 12:10am EDT

Sun May 12, 11:10pm EDT

Sun May 12, 10:10pm EDT

Sun May 12, 9:10pm EDT

Sun May 12, 8:10pm EDT

Sun May 12, 7:10pm EDT

Sun May 12, 6:10pm EDT

Sun May 12, 5:10pm EDT

Sun May 12, 4:10pm EDT

Sun May 12, 3:10pm EDT

Sun May 12, 2:10pm EDT

Sun May 12, 1:10pm EDT

Sun May 12, 12:10pm EDT

Sun May 12, 11:10am EDT

Sun May 12, 10:10am EDT

Sun May 12, 9:10am EDT

Sun May 12, 8:10am EDT

Sun May 12, 7:10am EDT

Sun May 12, 6:10am EDT

Sun May 12, 5:10am EDT

Sun May 12, 4:10am EDT

Sun May 12, 3:10am EDT

Sun May 12, 2:10am EDT

Sun May 12, 1:10am EDT

Sun May 12, 12:10am EDT

Sat May 11, 11:10pm EDT

Sat May 11, 10:10pm EDT

Sat May 11, 9:10pm EDT

Sat May 11, 8:10pm EDT

Sat May 11, 7:10pm EDT

Sat May 11, 6:10pm EDT

Sat May 11, 5:10pm EDT

Sat May 11, 4:10pm EDT

Sat May 11, 3:10pm EDT

Sat May 11, 1:10pm EDT

Sat May 11, 12:10pm EDT

Sat May 11, 11:10am EDT

Sat May 11, 10:10am EDT

Sat May 11, 9:10am EDT

Sat May 11, 8:10am EDT

Sat May 11, 7:10am EDT

Sat May 11, 6:10am EDT

Sat May 11, 5:10am EDT

Sat May 11, 4:10am EDT

Sat May 11, 3:10am EDT

Sat May 11, 2:10am EDT

Sat May 11, 1:10am EDT